Theta_e
333 332 334 335 335 335 336 335 334 333 332 329 326 324 322 323 324 322 321 322 321 321 322 323 325 326 325 322 319 324 330 330 329 329 329 329 328 327 326 327 327 327 327 328 328 328 327 325 323 322 321 318 318 318 315 315 315 316 323 322 320 325 327 327 327 323 320 317 315 315 312 308 304 301 300 298 298 298 300 300 302 305 310 313 313
333 333 334 336 336 335 334 334 335 334 333 330 326 325 323 324 324 321 320 321 321 322 323 323 324 325 326 324 320 323 329 330 330 329 328 328 328 328 327 327 328 327 327 327 327 328 329 327 326 325 324 321 318 318 314 313 313 311 320 323 319 324 326 327 328 324 322 318 315 315 312 309 305 301 300 298 298 299 299 298 298 302 308 312 313
335 335 335 336 336 334 334 334 334 334 335 332 328 326 325 325 324 322 320 319 321 323 324 324 325 325 326 326 324 325 328 329 329 330 329 328 327 327 327 327 328 327 327 327 326 327 329 328 327 326 326 324 322 321 315 312 312 310 318 323 320 323 327 326 328 326 324 320 316 316 314 310 306 302 301 299 298 298 297 297 298 300 306 311 314
336 335 334 334 334 333 334 333 333 333 335 334 330 326 324 324 325 324 322 322 322 323 325 325 326 328 328 328 328 327 328 328 329 329 330 329 328 328 327 327 328 328 327 327 326 326 327 328 327 327 326 325 324 322 320 318 315 308 315 323 320 321 326 325 327 327 325 323 317 316 315 312 308 303 301 299 298 298 297 298 298 300 303 309 312
334 333 333 333 333 333 333 332 332 333 334 334 331 327 325 324 325 325 324 324 324 324 324 326 328 330 331 331 330 329 329 329 329 329 330 330 329 328 328 328 328 328 327 327 327 326 326 327 327 328 328 327 325 323 322 323 320 312 313 322 321 320 325 325 326 327 325 324 319 316 316 313 309 304 301 299 298 297 297 297 298 299 301 304 309
331 331 332 332 331 331 332 332 332 333 333 334 333 331 330 329 328 327 327 327 327 326 326 328 330 331 331 331 331 330 330 330 329 329 329 329 330 329 328 328 328 328 328 327 327 326 325 326 326 327 328 327 326 323 323 324 324 318 313 318 320 319 322 326 326 326 325 325 320 316 316 315 311 306 302 300 298 297 297 296 296 297 298 300 303
331 331 331 331 331 332 331 331 332 332 332 332 333 333 332 332 330 329 330 330 330 330 329 330 331 331 332 332 331 331 330 329 329 329 329 329 328 329 328 328 329 328 328 328 327 327 326 326 325 326 327 326 325 325 325 325 324 323 318 317 319 318 320 325 326 326 325 325 323 319 316 315 313 307 302 300 298 297 297 296 296 296 297 297 300
329 330 331 331 331 332 332 331 332 331 331 331 332 332 332 332 331 330 332 331 331 331 330 330 331 331 332 332 331 330 330 328 328 329 329 329 327 327 329 328 328 329 329 328 328 328 326 326 326 325 326 325 325 325 325 325 325 325 323 319 319 318 317 321 325 327 326 325 324 321 318 315 314 309 303 301 299 297 297 296 296 297 298 297 298
326 327 330 330 331 332 332 332 332 331 331 331 332 332 332 332 331 331 331 331 331 331 331 330 330 331 331 332 331 330 329 328 328 329 329 328 327 326 328 328 329 328 328 329 328 328 327 326 326 326 326 325 325 325 324 326 326 326 325 322 319 318 317 317 322 327 327 326 324 322 320 316 315 312 305 302 299 297 296 296 296 297 298 298 297
325 326 328 329 329 330 331 331 330 330 329 331 332 331 331 331 330 329 329 330 329 330 330 330 329 330 330 331 332 331 329 327 327 328 328 327 326 327 327 327 327 328 329 329 328 329 328 327 326 326 326 325 324 325 324 325 326 327 326 325 323 321 320 315 318 326 327 326 326 323 321 318 315 313 307 302 300 298 296 296 296 296 298 298 299
323 324 326 327 326 328 329 329 328 328 329 330 331 330 331 331 329 328 328 329 329 330 330 330 329 329 329 330 331 332 330 328 327 327 327 327 326 326 326 326 326 327 328 329 329 329 329 328 327 326 326 325 325 324 324 324 325 327 327 327 325 323 322 316 314 322 327 327 327 325 322 319 316 314 310 304 300 299 297 296 296 296 297 297 299
321 322 323 325 325 326 327 327 327 327 328 329 329 330 330 330 329 329 329 329 330 330 330 330 330 329 329 329 330 331 331 330 328 327 327 326 326 326 325 325 325 326 327 328 329 329 329 329 328 327 326 325 326 324 325 324 324 325 325 327 327 325 324 321 316 319 325 327 327 326 323 320 317 316 313 308 302 299 298 297 298 298 298 298 298
318 320 322 323 324 325 326 327 328 328 327 327 327 328 328 328 328 328 328 329 329 330 330 330 330 330 329 329 329 330 332 331 331 330 329 328 327 326 326 326 325 325 325 326 328 329 329 329 329 328 327 326 326 325 325 325 324 324 324 325 327 327 326 325 322 320 323 327 327 326 325 321 319 317 315 313 306 301 301 298 299 300 299 299 299
318 320 321 322 323 324 324 326 327 327 326 325 326 326 327 327 327 326 326 327 328 328 329 329 329 328 328 327 329 330 331 330 331 331 330 330 330 328 327 327 326 325 325 326 327 329 329 329 329 329 329 327 326 326 324 325 324 324 324 324 325 326 326 325 324 322 322 325 327 327 326 323 321 319 317 315 310 304 304 302 298 298 298 299 300
319 321 321 321 322 322 323 323 324 324 323 323 324 324 324 325 326 326 326 327 327 328 328 328 328 328 327 328 330 332 333 330 329 330 329 329 329 329 328 327 327 326 325 325 326 328 329 329 330 329 329 329 327 326 325 325 325 325 325 324 323 324 326 325 325 324 321 323 326 327 327 325 322 320 318 317 313 307 307 305 299 297 297 298 299
318 320 320 320 320 321 321 321 321 321 320 320 320 320 320 321 323 324 326 327 328 328 329 329 329 329 329 329 328 330 334 331 327 329 328 328 327 327 327 326 326 326 326 326 326 326 328 328 329 329 329 330 329 328 327 326 326 325 324 324 324 324 324 324 325 326 322 321 324 326 327 327 324 321 318 318 315 310 308 306 300 298 296 298 299
317 318 318 319 319 319 320 319 319 319 319 318 318 317 318 318 319 320 321 324 325 324 326 328 329 329 329 330 329 330 332 329 328 330 328 327 328 326 326 326 325 325 325 326 326 326 327 328 329 329 329 329 329 329 328 328 326 326 326 325 325 324 324 323 324 325 324 322 323 324 326 327 325 323 320 319 317 312 309 306 301 298 295 297 299
316 316 316 317 317 317 318 318 317 317 316 316 316 316 316 316 317 318 319 319 321 320 321 324 326 326 327 328 329 330 330 329 330 332 329 327 328 327 327 327 327 327 326 325 326 326 326 327 327 328 329 328 329 329 329 329 328 327 327 326 325 325 325 324 323 324 324 323 323 323 325 327 327 325 322 320 318 314 311 308 303 298 295 296 298
315 315 315 315 316 315 315 315 314 313 312 312 312 312 312 313 314 315 316 317 319 318 318 320 321 321 323 325 326 328 328 328 330 332 331 329 328 327 327 327 327 327 326 326 326 327 326 326 325 326 326 327 327 328 328 329 329 328 328 327 326 326 325 325 324 324 323 323 323 323 324 326 327 327 324 321 319 317 314 311 305 300 297 296 298
314 314 314 314 313 312 312 310 309 308 307 307 308 308 308 309 309 310 311 313 315 315 316 317 318 318 320 322 323 326 326 327 327 329 330 331 329 327 326 325 325 325 325 326 326 326 327 326 327 326 326 326 326 326 327 327 328 328 327 328 327 326 326 325 325 324 323 322 322 323 324 325 327 327 326 323 321 318 316 314 308 301 298 297 297
314 314 313 312 310 308 307 306 306 306 306 306 307 306 305 306 306 307 308 308 309 311 312 314 315 316 317 318 319 321 323 325 326 326 328 330 328 327 326 325 325 324 324 324 324 324 325 327 327 328 327 327 327 327 326 326 326 326 327 327 327 327 326 326 325 325 324 323 321 322 324 324 325 327 327 325 323 320 317 316 311 303 300 299 296
313 314 313 311 309 308 308 308 308 308 307 306 306 305 305 305 306 307 307 307 307 307 309 310 312 313 315 316 317 318 320 323 323 322 324 327 327 326 326 326 326 325 324 324 323 323 324 326 328 328 328 328 328 328 327 327 326 326 326 326 327 327 327 327 326 325 325 325 322 320 323 325 325 327 327 326 324 321 319 317 313 305 301 301 297
310 311 311 311 311 311 311 311 311 310 308 307 306 304 304 305 306 307 308 308 308 308 308 308 308 310 312 314 315 316 318 319 319 319 321 322 323 323 324 324 325 325 324 324 322 322 323 325 326 326 326 327 327 327 327 328 327 327 327 326 326 327 327 327 327 326 325 325 324 322 321 323 325 327 327 326 326 322 320 319 315 309 303 302 300
310 310 311 312 312 312 312 312 312 310 309 308 305 304 304 304 307 308 309 309 309 309 308 308 308 308 309 310 311 313 314 315 316 317 318 319 320 321 321 322 323 323 323 322 321 321 322 323 323 323 323 325 327 327 327 327 327 327 327 327 326 326 326 327 326 327 326 325 325 324 321 321 322 325 327 327 326 324 321 320 318 313 306 303 301
311 310 311 312 313 313 313 313 311 310 309 307 305 304 304 304 306 307 309 309 309 309 309 309 309 309 309 309 309 309 310 311 312 314 316 317 319 319 320 321 322 322 321 321 321 321 321 321 322 322 321 322 325 327 327 327 327 327 327 326 326 326 326 326 326 326 326 325 325 325 324 321 320 321 326 328 326 325 323 321 319 315 309 306 304
310 311 311 312 313 313 313 312 310 310 308 305 305 305 304 304 305 305 306 307 307 308 308 308 309 309 309 309 309 309 309 309 310 312 313 316 317 318 319 319 319 321 321 320 321 322 321 320 321 320 320 321 323 326 327 327 327 327 327 327 326 327 326 326 326 326 326 326 325 325 325 324 321 319 323 327 327 326 324 322 320 317 311 307 306
309 310 311 312 313 313 313 312 310 309 307 304 305 305 304 305 305 305 305 305 306 306 307 307 307 307 308 308 308 308 308 309 309 310 312 314 315 316 318 318 318 319 319 319 320 320 320 320 320 319 320 320 320 323 327 327 327 327 327 327 327 327 327 326 326 326 326 326 326 326 325 325 324 321 321 324 326 327 325 323 321 319 315 309 306
309 310 312 312 313 313 312 311 310 307 305 304 304 305 305 305 306 305 305 305 305 306 306 306 306 305 306 306 306 307 307 307 308 309 310 312 313 313 315 317 318 318 318 318 319 319 319 320 320 319 320 320 318 319 323 325 327 327 326 327 327 327 327 327 327 326 326 326 326 326 326 325 325 323 322 322 323 326 326 324 322 321 319 312 307
310 310 312 313 313 312 312 310 308 306 305 304 305 305 305 306 306 306 305 305 305 305 305 305 305 304 304 304 305 306 306 306 307 307 308 309 310 310 311 313 315 317 318 317 318 318 319 320 320 319 319 320 320 319 320 321 324 326 327 327 327 327 326 326 326 326 326 326 326 326 326 326 326 325 324 321 320 322 324 325 324 322 322 317 309
311 311 312 313 312 312 311 309 307 305 304 305 305 305 306 307 306 305 305 305 305 305 305 305 304 304 304 304 304 305 306 306 306 306 307 308 308 309 309 310 312 315 317 317 316 317 319 320 321 321 321 321 321 320 320 320 321 324 326 326 326 326 326 325 325 325 325 325 325 326 326 326 326 326 325 324 321 320 322 324 325 323 322 320 313
312 312 312 313 312 312 311 309 306 305 305 305 305 306 307 307 306 305 305 305 305 305 305 305 304 304 304 304 304 304 305 305 305 306 306 306 307 307 308 309 310 312 314 316 316 315 317 319 318 319 319 319 319 320 320 320 320 321 322 323 324 326 326 326 326 325 325 324 325 325 325 326 326 326 326 325 323 321 321 323 325 324 323 321 317
313 313 312 312 312 312 311 308 306 305 305 305 305 306 307 306 305 305 305 305 304 305 305 304 304 304 304 304 304 304 304 305 305 305 305 305 306 306 307 308 309 309 311 314 315 314 313 314 314 315 315 315 316 318 320 321 320 320 320 320 322 325 326 326 326 325 325 325 324 325 325 325 326 326 326 326 325 323 321 322 324 325 323 322 321
314 313 313 312 312 313 311 307 305 305 305 305 306 307 307 306 305 305 304 304 304 304 304 304 304 304 303 303 303 303 303 304 305 304 305 305 305 306 306 306 307 308 309 312 314 313 312 311 312 313 313 314 315 317 320 321 321 322 322 322 322 323 324 325 326 326 325 326 326 326 326 325 325 326 326 326 326 324 322 321 323 325 324 322 322
314 314 313 313 313 313 310 306 306 305 305 305 306 307 307 306 305 304 304 303 304 304 304 304 303 302 302 301 300 300 300 301 303 304 305 305 305 305 305 306 307 307 308 309 311 312 312 312 312 312 313 314 315 315 317 319 319 321 323 323 323 322 323 324 325 325 325 326 326 326 326 326 325 325 326 326 326 326 323 322 323 324 324 323 322
314 314 314 313 313 312 309 306 306 305 305 306 307 307 306 306 305 304 303 303 303 303 303 302 301 300 299 299 299 298 298 298 299 302 304 304 304 304 304 304 305 306 307 307 308 310 311 311 312 312 313 314 314 313 313 315 316 318 320 323 324 324 324 324 324 325 326 326 326 326 326 326 325 324 325 325 326 326 324 323 323 324 324 323 322
314 314 314 313 313 310 308 306 306 305 306 307 307 307 306 305 304 303 303 303 303 302 301 300 299 299 298 298 298 297 297 296 296 299 301 303 303 302 302 303 303 304 304 304 305 306 307 308 309 309 310 310 311 311 311 312 313 314 317 320 323 324 324 325 325 325 326 326 326 326 326 325 325 325 324 324 325 326 325 323 323 324 324 323 323
314 314 313 313 311 309 307 306 306 306 307 307 307 306 306 304 303 303 303 302 301 300 299 299 298 298 298 297 297 296 296 296 296 297 298 300 300 301 301 301 302 302 303 303 303 303 304 305 306 306 306 307 308 309 309 310 312 312 314 316 319 322 323 324 325 325 325 326 326 326 326 326 325 325 324 323 323 324 325 324 323 323 324 323 323
314 314 313 312 311 308 307 307 307 308 308 307 307 305 304 303 302 302 301 300 300 299 298 298 298 297 297 297 297 296 296 297 297 297 297 298 298 299 299 300 301 301 302 302 302 302 302 303 304 304 304 305 305 307 308 309 310 311 312 314 315 317 320 321 323 324 325 325 326 326 326 326 325 324 323 322 322 323 323 323 323 323 324 324 323
314 314 313 312 310 308 308 308 308 308 307 306 305 304 303 302 301 300 300 299 299 298 298 297 297 297 297 296 296 296 296 296 297 297 297 297 297 297 298 299 300 300 300 300 301 301 301 302 303 303 303 304 304 305 306 307 308 310 311 314 315 315 316 318 320 321 323 324 324 325 325 325 324 323 322 321 321 321 321 322 323 323 324 324 324
314 314 312 311 309 308 308 309 308 308 306 305 303 302 301 300 299 299 299 298 298 297 296 296 296 296 296 296 296 296 296 296 297 297 297 297 297 297 297 298 298 298 299 299 300 300 301 301 302 302 302 303 303 304 305 305 307 309 310 313 316 315 314 315 316 318 320 321 322 323 323 323 323 322 321 321 320 320 320 320 321 323 324 324 324
314 313 311 310 309 309 309 309 308 306 304 302 301 300 299 299 298 298 297 296 296 295 295 295 295 295 295 295 295 296 296 296 296 296 296 297 297 297 297 297 297 297 297 298 299 299 300 301 301 301 302 302 303 303 304 305 306 308 309 311 314 314 314 315 315 316 317 318 319 320 321 321 321 320 320 320 321 320 319 319 320 322 323 324 324
313 312 310 310 309 309 309 308 306 304 302 301 300 299 298 297 296 295 294 294 294 294 294 294 294 294 294 294 294 294 294 295 295 295 295 295 296 296 296 296 296 296 296 297 298 298 299 300 300 300 301 301 302 302 303 304 305 306 307 308 311 312 314 316 316 315 315 316 318 319 319 320 319 319 319 319 320 320 319 318 319 320 322 323 323
312 311 310 310 310 309 308 306 304 302 301 300 299 297 296 294 293 292 292 292 292 292 293 293 293 293 293 293 293 293 293 293 293 294 294 294 294 295 295 295 296 296 296 297 297 297 298 299 299 300 300 301 301 301 302 303 303 305 305 307 309 311 313 315 315 315 314 315 317 317 318 318 318 318 318 318 318 319 318 318 318 319 321 321 322
311 310 310 310 309 307 306 304 302 301 300 299 297 295 294 292 292 291 291 291 292 292 292 292 292 292 292 293 293 293 293 293 293 293 293 293 294 294 294 295 295 295 295 296 296 297 297 297 298 298 299 300 300 300 301 302 302 304 305 306 307 310 312 313 314 315 315 316 316 316 317 317 317 317 317 317 317 317 318 317 317 317 319 320 321
311 310 310 309 307 305 303 302 301 299 298 296 295 293 292 292 291 291 291 291 291 292 292 292 292 292 292 292 292 293 293 293 293 293 293 293 293 293 294 294 294 294 294 295 295 295 296 296 296 297 297 298 299 299 300 301 301 302 304 305 307 309 312 313 313 314 315 315 315 315 315 316 316 316 317 317 316 316 316 316 315 316 317 319 320
310 310 309 307 304 303 301 300 299 298 296 294 293 292 291 291 291 291 291 290 291 291 292 292 292 291 291 292 292 292 292 292 292 292 292 292 292 293 293 293 293 294 294 294 294 294 294 294 295 295 296 296 297 298 298 299 300 301 304 306 308 309 310 310 310 310 311 311 313 314 314 315 315 315 315 316 316 316 316 316 316 315 315 317 317
310 308 306 304 302 301 300 299 297 295 294 293 292 291 291 291 291 291 290 290 291 291 291 291 291 291 291 291 291 291 292 292 292 292 292 292 292 292 292 292 292 292 293 293 293 293 293 294 294 294 295 295 296 296 297 298 299 300 302 304 306 306 306 306 306 307 308 309 310 312 313 314 314 314 315 315 314 314 315 315 315 315 315 315 316
308 306 304 302 301 299 298 296 294 294 293 292 291 291 292 292 291 290 290 291 291 291 291 291 291 291 290 290 290 291 291 291 291 291 291 291 291 291 291 291 291 292 292 292 292 292 293 293 293 294 294 294 295 295 296 297 298 299 300 301 302 303 303 304 304 304 306 307 308 310 312 314 314 313 314 313 312 312 313 313 314 314 313 313 313
305 303 302 300 299 298 296 294 293 293 293 292 292 292 292 291 290 290 290 290 290 291 290 290 290 290 290 290 290 290 291 291 291 291 291 291 291 291 291 291 291 291 291 291 291 291 292 292 292 293 293 294 294 294 295 296 296 297 299 300 301 302 302 302 303 303 304 305 307 309 311 312 313 313 312 311 311 311 311 311 311 311 311 310 310
302 301 299 298 296 295 294 294 294 293 292 292 292 292 292 291 290 290 290 290 290 290 290 290 290 290 290 290 290 290 291 291 291 291 290 290 290 290 290 290 290 290 290 290 291 291 291 291 292 292 293 293 294 294 294 295 295 296 297 299 300 300 300 301 301 302 303 305 306 308 310 311 312 311 310 308 309 309 309 309 308 308 308 307 306
300 298 297 296 295 295 294 294 293 292 292 292 292 292 292 290 290 289 290 290 290 290 290 290 290 289 289 289 289 290 290 290 290 290 290 289 289 289 289 289 289 290 290 290 290 290 290 290 291 291 292 292 293 293 294 294 295 296 296 297 298 298 299 299 300 301 303 304 305 307 309 310 311 310 308 307 307 306 305 305 305 304 305 305 304
Wind_Speed
14 13 13 13 13 14 15 14 14 13 12 11 10 9 9 10 11 13 14 13 10 9 7 6 5 4 6 9 10 9 8 7 9 11 11 11 11 10 9 7 6 5 5 6 6 6 5 4 3 4 3 3 3 4 3 2 3 4 5 3 5 7 6 4 2 1 2 3 4 6 7 7 7 7 7 7 7 8 9 9 9 10 11 12 12
13 13 14 14 14 14 12 12 15 15 12 12 10 9 9 9 10 11 12 12 11 9 8 7 6 5 5 7 10 11 10 8 7 9 11 12 12 11 11 9 7 6 6 6 6 7 6 5 5 5 4 3 3 4 4 3 3 3 5 4 5 8 7 5 3 2 0 2 2 4 6 6 6 6 6 6 6 7 8 8 9 9 10 11 12
13 14 14 14 12 11 12 12 14 13 12 12 10 8 8 9 10 10 10 11 11 10 8 8 7 6 7 7 8 10 11 10 9 9 10 12 13 13 12 11 9 8 7 7 6 7 7 7 5 6 6 4 4 4 4 4 4 3 6 4 5 8 7 6 4 3 2 1 1 2 4 5 5 5 5 5 5 6 6 7 8 9 9 11 11
13 14 13 14 12 12 14 12 9 10 13 13 12 11 11 10 11 11 11 11 11 11 9 9 8 8 8 7 8 10 11 12 11 10 10 11 13 13 14 13 12 10 9 8 7 7 7 7 6 6 6 5 4 4 3 4 3 3 6 5 5 8 8 6 4 4 3 3 2 1 3 4 4 4 4 4 4 4 5 6 7 8 8 9 11
11 10 12 14 12 11 12 12 10 9 12 15 16 15 13 12 12 11 11 12 12 11 10 9 9 8 8 8 8 10 12 13 13 12 11 11 12 14 14 15 15 13 11 10 9 8 8 8 7 6 7 6 5 4 3 5 3 2 5 5 5 8 9 6 5 5 4 3 3 1 1 3 3 4 3 3 3 3 4 5 6 7 7 8 9
6 5 10 12 9 9 10 12 12 9 9 15 17 16 13 12 11 10 10 11 11 11 10 10 9 9 9 10 10 10 13 14 14 14 13 12 12 14 15 16 17 15 13 12 11 10 9 9 8 7 7 7 6 4 4 6 4 3 3 5 6 7 9 7 5 6 5 4 4 3 1 2 2 3 3 2 2 2 3 4 5 6 6 7 8
3 3 7 8 6 8 11 12 12 10 8 12 16 16 15 14 13 12 11 10 10 10 10 10 9 9 10 11 12 12 14 15 16 15 14 13 14 15 16 17 18 17 15 14 13 11 11 11 10 9 8 8 7 6 5 6 6 4 3 4 5 7 9 8 6 6 7 5 5 5 3 1 2 3 3 2 1 1 2 3 4 5 5 6 7
4 4 3 3 4 6 8 9 10 10 9 9 12 14 17 19 17 16 14 11 11 10 10 10 10 9 8 10 10 12 14 15 16 16 15 15 16 16 18 19 19 19 17 16 15 14 12 12 12 11 10 9 8 7 6 7 7 7 5 4 4 7 8 9 7 6 7 7 6 6 5 3 2 2 3 3 2 1 0 2 3 4 5 5 6
3 3 3 3 4 5 5 6 8 11 10 8 11 13 15 18 18 18 17 15 13 12 11 11 11 10 8 7 9 9 13 15 16 17 18 17 16 16 17 18 19 20 19 18 17 16 15 14 14 13 12 11 9 9 8 7 8 9 8 6 5 5 7 9 9 8 8 8 7 6 7 5 3 2 3 3 3 2 1 1 3 3 4 4 5
3 4 4 4 5 5 4 4 6 8 8 10 12 12 10 12 16 18 16 15 15 14 13 13 12 12 11 8 8 7 10 15 17 18 19 18 17 15 14 15 18 20 20 20 19 17 16 16 15 15 14 13 12 11 10 9 9 10 10 9 7 6 6 8 10 10 9 9 8 7 7 7 5 3 4 4 4 3 2 2 2 3 4 4 5
4 4 4 5 5 5 5 4 3 3 7 10 12 10 8 9 12 14 13 13 14 14 13 12 13 14 15 13 9 8 9 13 17 18 19 19 17 15 14 15 16 19 21 21 21 20 19 18 17 17 16 15 14 13 12 11 10 11 11 11 10 9 8 8 10 11 9 10 10 8 9 9 7 4 4 5 5 4 4 3 3 3 4 4 5
3 3 3 3 5 6 5 6 6 2 3 5 6 6 6 4 5 9 9 10 12 12 10 9 9 13 16 17 11 8 9 11 14 16 17 17 16 16 15 15 16 17 19 21 22 22 21 20 19 19 18 17 17 15 14 13 12 12 12 11 11 11 10 10 10 11 11 11 11 10 10 10 9 6 5 6 5 5 5 4 3 4 4 4 5
3 2 1 1 3 6 7 6 7 7 7 6 5 2 3 4 4 4 4 4 5 6 7 5 5 8 11 14 14 11 9 8 10 12 14 15 16 17 17 16 16 17 18 20 22 23 23 23 21 21 20 19 19 18 16 15 14 14 13 12 12 11 12 12 12 12 13 13 12 12 11 11 11 9 7 6 6 6 6 5 4 4 4 4 4
3 3 3 3 3 5 8 8 9 10 11 11 13 11 6 5 4 4 6 5 2 2 3 3 4 3 1 5 9 11 9 8 8 10 12 14 16 17 18 18 18 18 18 19 21 22 24 24 23 23 22 21 21 21 19 17 16 16 15 14 14 13 13 13 13 13 14 15 14 14 13 12 11 11 9 8 7 6 6 6 5 5 5 5 5
5 5 7 7 7 8 9 11 12 12 12 13 14 14 13 11 9 8 10 9 6 3 2 3 5 4 2 2 3 4 6 5 6 9 10 11 14 16 18 19 20 19 18 19 19 20 22 23 24 24 24 24 23 22 22 20 19 18 17 17 16 15 14 14 14 14 15 16 16 15 15 14 12 12 11 9 8 7 8 7 6 6 5 6 6
4 5 7 9 9 10 10 11 12 12 13 14 15 15 15 15 13 11 11 12 10 7 6 5 4 3 2 1 1 1 2 3 7 9 7 5 7 11 14 17 19 20 20 20 19 19 20 22 23 24 25 25 25 25 24 23 21 20 19 19 18 17 16 14 14 15 15 17 18 16 16 16 14 12 11 10 9 8 9 8 7 7 7 6 6
4 4 5 7 8 8 9 10 11 10 11 12 14 14 14 14 13 13 12 12 12 11 9 8 7 5 3 2 1 0 1 2 5 6 5 6 5 4 5 7 11 14 16 18 18 19 20 21 22 23 24 25 26 27 26 25 24 23 22 21 20 20 18 16 15 16 16 17 19 18 17 17 15 13 12 12 11 10 10 10 8 8 8 8 7
4 4 5 5 5 6 6 7 8 9 9 10 11 11 12 12 11 11 12 11 11 12 11 9 8 7 5 3 1 0 1 1 1 1 6 7 3 5 6 5 6 7 8 11 12 15 16 18 21 22 23 24 25 27 27 27 27 26 25 24 22 21 20 18 16 16 16 16 19 19 18 18 17 15 14 13 13 12 11 11 10 9 9 9 8
5 5 5 5 5 5 5 6 7 8 8 9 11 11 11 11 10 9 9 8 8 11 12 8 7 7 7 5 4 3 1 2 2 1 4 4 5 10 10 7 8 9 9 9 9 10 12 14 16 18 20 22 24 26 27 27 28 28 28 27 25 23 21 20 18 17 16 16 18 21 20 19 19 18 16 15 15 14 13 12 11 10 10 10 9
6 6 6 6 6 7 7 8 9 10 10 11 12 12 11 11 10 9 8 8 8 9 9 8 6 6 5 5 5 5 3 2 2 3 2 2 5 9 10 11 13 12 9 9 9 11 13 13 14 14 15 17 20 22 24 25 26 27 28 28 28 26 24 22 21 19 17 16 18 20 22 21 20 20 19 17 16 15 15 14 12 11 11 11 11
6 6 6 7 8 9 9 10 11 11 11 11 12 11 12 11 11 11 9 9 9 8 8 8 7 6 5 5 5 4 4 3 3 4 2 2 3 3 8 14 15 13 12 12 13 13 14 15 15 15 14 14 16 18 20 22 24 25 26 26 28 28 27 25 24 22 20 18 18 20 22 22 21 21 21 20 18 17 17 16 14 13 12 12 12
6 6 6 7 7 8 8 9 10 10 10 11 11 12 12 12 12 11 11 10 10 9 8 8 6 5 5 5 5 5 4 3 4 6 4 3 3 3 6 9 9 13 17 15 16 16 15 14 14 14 14 14 15 17 19 20 21 22 23 23 25 27 28 28 26 25 23 21 19 20 22 22 21 21 22 22 20 19 18 18 17 15 14 13 12
6 6 6 6 6 5 6 7 8 8 9 10 11 12 12 12 12 12 12 12 12 11 10 9 7 6 5 5 5 5 4 2 3 5 3 2 4 4 5 7 9 12 14 14 16 16 14 13 13 14 15 15 15 17 18 20 21 22 22 22 24 26 27 28 28 28 27 24 22 21 22 23 22 22 23 23 21 20 20 19 19 17 16 15 13
7 6 5 5 4 3 3 4 5 7 8 10 11 11 11 11 12 13 13 13 12 12 12 11 10 9 7 7 6 5 4 3 3 3 3 3 4 4 5 8 8 9 13 15 16 15 14 14 14 14 14 14 14 15 17 19 20 21 21 22 23 24 26 27 28 29 29 28 25 23 23 25 24 23 23 24 23 21 21 20 20 19 18 17 15
9 7 6 5 4 2 1 1 3 5 7 8 8 9 10 11 12 12 12 12 11 11 11 11 11 10 9 9 8 8 6 5 4 4 4 4 4 4 5 6 6 9 14 15 14 14 16 15 13 13 13 13 13 14 16 17 18 19 20 22 22 23 25 26 28 29 30 30 29 26 25 26 27 26 23 23 24 24 23 22 22 21 21 20 17
10 9 7 5 4 3 2 1 1 3 5 6 6 7 8 10 12 12 12 12 11 11 10 10 10 10 10 9 9 9 9 7 6 5 5 5 5 5 5 6 7 9 10 12 12 12 14 14 14 14 14 12 11 12 14 16 17 17 17 20 21 21 22 24 26 28 30 31 31 30 28 27 28 28 26 25 26 27 25 24 23 23 22 22 20
9 10 9 7 6 5 4 2 0 2 4 4 4 5 6 8 10 10 11 11 10 10 10 10 11 10 10 10 10 10 9 9 8 7 6 6 6 6 6 5 6 6 6 8 11 12 14 16 17 16 13 11 11 11 12 15 17 17 17 18 19 19 20 21 23 25 28 29 30 31 31 30 30 30 29 28 28 28 27 25 24 24 23 23 23
10 10 10 9 8 7 6 4 1 1 2 3 3 3 5 7 8 9 9 9 9 10 10 10 11 12 12 12 11 11 10 9 9 9 8 7 8 8 7 6 6 5 4 5 7 9 12 13 13 13 11 10 12 12 11 14 16 17 19 20 20 20 21 21 21 22 24 26 28 29 31 32 33 32 31 31 31 30 30 28 26 24 24 23 24
12 12 11 10 10 9 7 5 3 2 2 1 1 2 4 5 6 8 8 8 8 8 9 10 11 12 12 12 12 11 10 10 9 9 9 10 10 10 9 8 7 5 4 5 5 5 9 11 11 12 13 13 14 14 14 14 15 17 19 20 20 21 22 21 21 22 23 25 26 28 29 30 33 34 34 34 34 33 32 32 29 27 25 24 25
14 14 13 12 12 11 9 7 5 3 2 1 1 1 3 4 5 6 7 7 7 7 8 9 10 11 12 12 12 12 11 11 11 10 10 10 11 11 12 11 10 8 6 5 6 7 9 11 11 13 16 17 17 18 17 15 15 16 17 18 18 18 18 18 19 21 23 23 24 27 29 31 32 35 36 36 36 35 34 34 33 30 28 27 25
17 16 15 15 14 12 10 8 6 4 2 2 2 2 2 3 4 5 5 5 5 6 7 8 9 10 11 11 11 12 12 12 12 12 12 12 12 12 12 12 12 12 10 8 7 8 9 10 12 15 17 19 19 18 17 16 15 16 17 18 18 17 17 17 18 19 19 20 20 22 26 30 32 34 37 38 38 37 37 36 35 34 31 29 27
19 18 17 16 15 13 11 9 7 5 3 3 2 1 1 2 3 4 4 4 4 4 5 7 9 10 11 12 12 12 12 12 12 13 13 13 13 13 12 12 12 13 14 11 9 11 15 15 15 16 17 19 20 18 17 17 14 14 16 18 18 19 19 19 19 19 18 17 18 19 21 25 29 33 37 39 39 39 39 38 37 36 34 31 29
21 20 19 17 16 14 12 10 8 6 4 3 2 1 1 2 4 5 5 6 6 6 7 8 9 11 12 13 14 14 15 15 14 13 13 13 13 13 13 13 13 12 13 13 11 13 18 18 15 17 16 16 18 17 17 18 16 15 16 18 18 20 21 21 21 22 23 22 22 22 21 22 25 29 34 38 39 40 41 41 39 38 36 33 31
22 21 20 18 16 15 13 11 8 6 5 3 2 2 3 4 6 7 7 7 7 7 8 9 10 11 13 15 16 17 18 18 17 15 13 11 11 12 12 13 14 12 11 12 12 12 17 20 18 18 17 14 15 17 16 17 18 17 18 20 20 21 22 23 24 26 27 27 26 24 24 23 24 26 29 35 39 40 41 42 42 40 38 36 33
23 21 20 19 17 15 13 11 8 6 5 4 3 4 5 6 7 8 8 8 7 7 8 9 11 13 15 17 19 20 21 21 20 17 14 12 12 13 14 13 14 14 12 11 11 10 14 19 19 17 16 15 16 17 18 19 19 18 19 20 22 22 22 22 23 25 26 26 26 25 25 24 24 25 27 32 38 40 42 43 44 42 40 38 35
23 22 20 18 17 15 13 11 9 7 6 5 5 6 6 7 8 8 8 7 7 8 9 11 12 14 16 18 20 21 21 21 21 20 18 17 16 16 17 16 16 16 16 14 14 13 13 17 20 19 18 18 19 19 20 21 21 20 19 18 19 21 21 21 22 23 24 25 26 26 25 24 24 24 26 29 35 40 42 43 45 44 42 40 37
23 22 20 19 17 15 13 11 9 8 6 6 6 7 7 8 9 8 7 8 9 10 11 13 14 15 17 18 20 20 19 19 20 20 20 20 20 19 19 19 18 18 19 18 18 18 16 18 22 23 21 20 21 21 20 19 21 22 21 19 18 18 19 21 23 23 24 25 26 26 26 25 24 24 24 26 31 37 41 43 45 45 44 42 39
23 22 21 19 17 15 13 11 9 8 7 7 7 7 7 7 7 7 8 9 11 12 14 15 16 17 18 19 20 19 18 18 18 19 19 20 20 21 20 20 19 19 20 20 20 20 19 20 23 25 24 21 21 22 21 18 18 20 21 22 21 18 17 19 22 23 24 26 27 27 27 27 26 24 23 24 27 33 38 42 44 46 46 44 41
24 23 22 19 17 15 13 11 10 9 8 8 7 6 5 6 6 8 9 11 13 15 16 17 18 19 20 20 20 20 19 19 19 19 19 19 19 20 20 20 20 20 20 21 21 21 20 21 22 24 24 22 20 21 22 20 18 18 18 19 21 20 18 17 18 20 21 24 25 26 27 27 26 25 24 23 24 29 35 40 44 46 47 45 43
25 24 22 19 17 15 13 11 10 9 9 8 6 5 4 5 7 9 11 14 16 18 19 20 20 21 21 21 21 21 20 20 20 20 20 20 20 20 20 20 20 21 21 21 21 21 21 21 22 23 24 24 21 21 22 21 19 19 17 15 16 19 20 18 18 18 19 20 22 23 25 26 26 25 23 22 23 26 32 38 43 46 47 46 44
24 23 21 19 17 15 13 11 11 10 9 7 5 4 4 6 8 11 13 15 18 20 21 22 23 23 23 22 22 22 21 21 22 22 22 21 21 22 22 21 21 22 22 22 21 20 20 20 20 21 22 23 20 19 20 19 17 17 18 17 17 19 20 19 18 17 17 18 20 22 23 25 26 25 23 22 22 24 29 35 41 45 47 47 45
24 22 19 17 16 14 14 13 12 11 9 7 5 4 5 7 10 12 15 17 18 20 22 23 24 24 24 23 23 23 23 23 23 24 24 24 24 24 24 24 24 23 23 23 21 20 19 18 18 18 19 21 21 19 20 21 19 18 19 20 20 20 19 17 16 18 17 16 18 21 22 23 23 23 23 23 23 23 27 33 39 45 47 47 45
24 21 18 17 16 15 14 14 13 11 9 6 4 4 6 8 11 14 16 18 19 20 21 22 24 25 24 24 25 24 24 24 25 25 25 25 25 25 25 25 25 25 25 24 23 21 19 17 18 18 18 20 23 22 21 21 21 20 19 19 20 20 18 14 12 14 16 14 14 18 21 21 20 22 23 24 24 24 26 30 36 43 45 45 45
25 22 19 17 17 16 16 15 13 10 7 5 4 5 7 10 13 16 18 19 21 21 22 23 23 24 25 26 25 25 25 25 25 25 24 25 25 25 25 25 25 25 25 26 26 24 22 20 19 19 20 21 24 24 22 20 20 20 19 19 20 19 19 16 13 13 15 14 13 15 19 20 19 20 23 24 24 24 25 27 32 39 43 44 45
26 23 20 18 18 17 16 14 12 8 5 4 5 6 9 11 14 18 21 22 22 23 23 23 24 24 25 26 26 26 25 25 24 24 25 26 26 26 26 26 27 27 26 27 28 28 28 27 25 24 24 23 25 26 23 20 20 20 19 19 19 18 17 15 13 12 13 13 13 14 17 20 19 19 22 24 23 24 24 25 27 33 39 42 44
25 23 21 19 18 17 15 12 9 6 4 4 5 7 10 13 17 20 23 24 24 24 24 24 25 25 26 26 27 27 26 26 25 25 26 27 27 28 28 28 28 29 28 28 28 28 29 31 31 32 31 29 29 29 26 23 21 21 20 19 17 16 17 16 16 15 15 14 14 13 14 18 19 19 22 24 22 22 24 24 24 28 33 38 40
23 21 21 20 18 15 12 9 6 4 3 4 6 9 12 16 20 23 26 26 26 25 25 25 25 26 25 25 27 27 27 27 26 25 26 26 27 28 29 29 30 30 30 30 29 28 29 30 33 35 35 33 32 31 29 27 25 25 24 23 22 20 20 20 21 22 21 19 17 13 13 17 19 18 20 23 21 21 22 22 23 25 29 33 36
21 20 20 20 17 13 9 6 3 2 3 5 7 10 14 18 22 26 28 28 27 26 27 27 26 26 25 25 25 26 26 26 26 26 25 25 26 28 29 31 31 31 31 30 29 29 30 30 32 34 34 34 32 32 30 28 27 26 25 27 28 25 21 21 22 24 23 22 20 17 15 17 20 19 19 19 18 19 21 22 22 24 26 29 31
23 22 20 18 14 9 6 3 2 2 4 5 8 11 14 19 24 27 28 28 27 28 28 27 27 26 25 24 24 24 25 25 25 25 24 24 26 28 29 31 31 31 31 29 28 29 29 30 31 32 33 33 32 32 32 31 30 27 24 25 25 21 17 16 16 18 22 23 21 19 18 19 21 20 17 16 16 16 18 20 21 21 22 24 26
24 22 18 14 10 6 3 2 1 3 4 6 9 12 15 20 25 27 28 27 27 28 29 28 27 25 24 24 22 22 24 24 24 25 24 25 27 29 29 30 31 31 30 28 28 29 27 28 29 30 31 32 31 32 32 32 32 30 29 29 26 21 19 17 15 15 20 23 23 20 18 19 19 18 15 12 12 14 16 17 18 18 18 19 21
23 19 15 11 8 5 3 1 2 3 6 8 10 12 15 21 25 27 27 27 27 28 28 27 26 24 23 24 23 23 24 26 27 28 28 28 30 30 30 30 32 31 27 25 26 26 26 27 28 28 30 31 31 32 32 31 32 31 33 33 29 25 24 21 18 15 13 16 21 22 20 19 18 19 16 9 4 8 13 15 15 15 16 17 19
Wind_Direction
234 235 236 237 237 230 219 220 219 214 218 221 225 230 226 220 222 224 221 218 217 214 218 220 221 218 208 205 207 207 200 199 205 205 207 212 216 217 210 207 204 205 202 202 203 201 207 219 225 238 251 252 238 239 237 221 224 174 163 182 151 142 136 136 196 189 47 42 44 34 39 41 42 45 42 48 51 56 64 66 70 74 77 82 83
238 239 239 240 240 234 225 225 223 217 217 223 226 232 233 225 222 223 220 217 214 214 223 234 240 244 241 223 212 210 206 205 211 213 212 213 215 218 216 215 211 210 209 210 208 204 206 205 207 211 211 231 233 242 260 239 242 203 167 196 179 158 147 139 184 219 323 20 43 31 34 40 37 39 39 44 50 53 63 66 71 77 81 83 82
243 244 249 249 249 254 255 246 231 218 215 224 229 234 240 236 229 223 218 217 218 225 235 246 256 263 265 251 230 223 222 220 221 224 223 219 218 219 220 220 218 214 213 217 214 209 208 208 210 206 201 212 214 232 266 243 242 221 178 196 193 169 155 144 182 230 246 307 9 35 29 39 32 31 35 38 46 50 60 69 75 80 84 88 87
249 248 255 257 255 261 266 266 254 229 215 214 218 223 228 233 233 226 222 225 229 236 247 258 269 281 281 268 251 237 235 235 232 232 233 228 224 223 223 224 223 218 216 220 221 217 214 215 215 212 212 216 217 238 261 226 240 228 185 196 208 180 165 150 177 229 244 284 287 30 23 33 28 20 28 30 42 49 58 73 80 84 90 96 96
253 247 250 255 252 253 263 266 266 251 218 207 212 214 216 224 231 232 231 236 242 245 253 264 275 286 287 281 269 248 241 242 238 235 237 236 231 229 228 229 228 224 221 222 224 225 223 223 221 216 215 215 224 245 234 213 249 275 191 201 223 189 174 159 174 227 246 273 278 263 11 27 24 11 14 19 35 46 58 74 85 91 96 102 103
255 248 256 261 257 255 260 255 255 260 225 210 216 213 211 220 224 231 236 240 249 252 256 266 281 290 295 296 283 264 252 245 238 236 239 241 238 235 234 234 234 231 227 225 225 228 228 228 228 223 218 220 233 243 217 214 244 289 215 208 230 203 182 169 176 226 247 262 272 265 282 11 11 357 356 358 19 35 56 74 87 97 102 107 106
325 326 274 270 269 262 260 254 251 258 245 228 227 215 209 218 220 225 234 241 250 254 258 267 283 294 306 308 290 273 264 251 241 236 238 247 248 243 239 238 238 237 234 231 229 229 230 230 231 230 230 238 247 241 222 223 230 243 241 219 233 220 194 181 181 221 244 252 264 270 266 299 346 339 337 333 341 8 46 79 87 95 105 112 109
351 358 311 295 296 276 268 265 261 261 259 252 251 231 215 217 219 221 227 239 250 254 257 263 274 285 303 318 303 279 265 252 242 236 238 249 256 253 246 243 242 241 240 238 236 234 233 232 232 233 236 244 252 248 237 233 226 223 238 243 237 231 211 195 190 210 236 247 258 268 265 258 295 317 314 310 302 296 7 96 96 95 105 113 115
333 333 339 343 308 294 296 290 280 272 259 252 262 253 232 225 222 224 231 240 252 261 262 261 266 271 285 322 329 296 265 251 243 239 245 253 257 256 252 250 248 246 244 244 243 241 239 236 234 234 237 244 250 253 249 239 231 225 232 248 254 245 233 218 203 206 228 236 244 255 260 255 256 294 295 290 284 262 250 141 118 110 110 112 114
13 349 351 353 326 334 353 322 288 272 246 233 242 245 242 238 228 226 233 241 250 264 268 261 262 264 270 298 331 319 274 255 249 247 251 255 253 251 253 257 255 252 249 248 248 246 244 241 238 236 237 242 246 250 252 244 236 230 228 238 255 258 254 238 211 208 226 230 232 243 254 256 248 264 279 275 273 261 245 207 150 134 130 125 120
11 355 358 355 348 10 35 27 353 242 217 225 234 235 236 241 236 231 237 247 249 257 266 265 263 263 268 281 305 318 282 254 252 255 253 253 251 248 252 258 257 255 253 252 251 249 247 244 241 239 238 240 243 246 249 249 242 236 229 229 242 253 260 251 216 208 226 229 228 238 253 260 250 245 260 264 264 258 247 221 183 160 151 146 137
339 332 347 348 1 32 52 49 50 98 184 219 235 233 219 206 226 232 238 250 249 252 264 267 263 262 266 271 282 306 293 257 251 255 253 253 253 250 253 258 258 257 256 255 253 251 250 247 245 243 242 241 242 244 244 248 248 244 239 231 231 242 249 250 228 212 224 234 229 232 250 262 259 250 246 249 255 254 247 231 201 177 166 158 151
330 323 359 357 21 45 54 63 73 80 83 78 82 120 172 161 178 198 186 211 240 252 257 247 239 255 265 270 274 286 290 267 255 256 254 256 256 253 253 256 258 257 256 256 254 253 251 249 248 246 246 244 243 244 243 245 248 247 245 239 231 232 238 244 239 224 229 242 234 226 242 260 260 258 245 232 243 246 239 234 213 192 182 172 163
43 61 77 72 69 67 66 71 78 80 80 76 78 86 99 134 141 111 115 137 154 209 240 216 189 203 287 305 288 281 276 267 266 268 264 258 255 253 253 255 259 261 260 259 257 255 253 251 250 249 248 247 245 244 244 244 247 247 245 244 238 232 233 238 241 234 231 242 241 226 234 255 258 258 249 226 231 239 229 232 228 211 199 187 176
76 78 82 81 79 82 81 78 78 77 78 76 77 82 84 90 96 97 102 106 112 134 170 168 171 170 84 19 306 293 277 273 287 288 280 268 256 251 251 253 257 259 259 260 260 258 258 255 253 252 251 251 250 248 246 247 248 249 245 245 244 239 236 237 240 239 230 234 245 234 228 244 254 254 246 225 223 231 224 230 236 228 213 199 189
94 89 83 80 78 81 84 81 79 77 77 77 75 74 74 75 77 82 88 92 95 91 82 100 138 148 121 167 150 37 299 318 322 300 295 307 284 262 257 257 258 258 257 258 261 262 262 261 258 256 255 255 254 252 251 250 250 250 248 246 246 245 242 240 239 240 234 230 241 242 229 235 249 247 233 221 224 229 228 232 235 234 227 211 202
110 97 84 78 75 76 78 80 80 77 75 76 75 73 71 69 69 70 74 82 90 83 75 79 81 89 103 137 141 92 216 357 337 300 310 342 349 329 288 273 274 272 269 267 268 270 269 268 265 262 261 260 259 257 255 254 252 250 249 247 245 245 244 242 239 240 240 232 236 243 235 231 240 240 222 215 225 233 236 238 236 236 232 220 211
114 96 87 84 81 78 73 74 73 69 68 70 72 69 65 65 63 64 67 71 82 80 74 81 85 81 80 97 99 64 225 297 322 302 328 326 336 1 352 346 338 323 306 295 288 285 282 278 274 270 268 267 264 262 259 257 255 252 251 250 247 245 244 242 240 239 241 234 232 239 238 229 232 239 229 213 217 230 239 242 238 237 234 224 217
112 101 91 86 83 81 76 72 71 68 67 67 67 63 62 63 57 58 65 60 64 68 66 74 83 74 74 89 86 71 57 312 283 276 329 305 291 322 331 340 341 334 328 327 328 320 309 297 288 280 276 273 271 268 266 262 259 256 254 254 250 247 245 243 241 238 238 234 230 234 238 232 227 236 239 222 212 220 234 244 241 234 233 226 218
115 104 91 85 81 83 83 80 76 71 67 65 63 59 53 52 48 47 53 53 54 62 64 62 59 55 54 58 66 69 59 5 316 289 289 281 301 318 325 326 323 319 317 320 328 330 323 315 307 298 290 284 279 274 271 268 265 261 258 256 253 249 246 244 242 239 235 232 228 229 235 237 229 230 238 233 221 216 221 235 239 232 229 226 220
127 112 97 92 88 89 87 79 70 62 58 55 50 44 39 36 37 37 40 47 51 53 59 60 54 47 34 26 33 43 55 59 5 331 296 281 301 315 321 323 321 317 314 311 313 316 317 316 312 308 303 296 290 284 277 272 268 266 263 260 257 253 248 245 243 240 236 231 227 225 229 236 233 228 231 233 230 221 214 219 228 230 227 224 221
133 122 110 100 94 95 88 72 61 53 47 43 36 32 33 34 36 36 38 43 46 47 53 57 55 49 39 32 29 31 51 67 19 358 337 298 298 302 317 325 323 313 313 314 314 310 310 312 311 310 307 303 299 292 285 279 274 270 269 266 262 257 253 248 244 241 238 233 228 225 224 230 234 230 228 228 227 222 214 211 217 224 225 223 222
138 127 119 111 104 99 82 65 54 46 40 33 30 31 37 42 46 47 46 46 46 45 47 49 49 48 43 40 42 48 56 48 11 360 348 321 318 316 317 321 313 302 306 315 316 312 311 310 310 311 312 310 305 298 292 286 281 278 277 273 267 262 258 253 247 243 240 235 230 226 223 224 229 231 229 227 222 218 214 210 210 217 221 221 220
155 144 135 131 124 104 76 58 43 39 37 31 29 33 39 45 51 52 50 48 46 43 43 42 40 39 39 37 35 38 35 18 3 349 331 316 313 304 304 315 308 292 302 314 315 314 312 308 308 311 315 312 304 300 299 294 288 285 283 280 274 269 264 258 253 247 242 239 233 228 225 223 225 229 229 227 221 215 212 210 208 211 216 219 218
173 166 158 154 154 147 117 64 31 32 34 30 31 36 39 44 47 46 43 42 39 35 35 35 33 30 29 28 25 23 18 6 348 333 324 312 301 293 296 303 294 292 305 312 313 312 306 303 309 314 316 315 306 298 295 295 295 293 289 286 283 278 271 265 259 253 246 242 237 231 227 225 226 227 226 225 222 216 212 211 211 211 213 216 217
183 177 176 179 191 204 200 181 31 26 25 24 34 43 45 46 43 38 35 33 31 28 27 27 26 24 20 16 15 14 11 7 352 333 323 309 294 292 300 299 285 285 297 301 302 301 297 298 305 307 308 314 317 310 299 295 295 297 295 291 289 286 281 275 268 261 253 246 241 237 232 229 228 228 225 225 225 222 216 214 217 218 216 215 217
194 189 191 198 209 212 208 212 331 15 8 11 31 49 53 50 44 37 34 33 30 28 25 22 19 17 15 10 6 3 360 358 352 343 334 320 307 299 299 300 291 281 282 288 284 278 282 293 301 302 303 312 320 321 313 304 296 292 291 289 289 289 288 285 279 269 259 251 244 241 237 233 231 231 228 226 226 226 223 219 222 227 223 218 218
207 202 203 208 213 212 212 218 225 314 334 355 19 40 50 48 41 35 31 30 29 26 23 20 15 10 6 3 359 356 351 347 342 338 334 328 323 317 304 295 292 290 288 280 272 272 281 293 302 301 299 306 311 313 311 307 301 293 286 282 283 284 285 285 283 274 266 257 248 243 240 236 234 234 232 229 228 228 226 224 225 231 230 224 220
217 213 211 211 211 212 214 217 220 254 299 340 29 46 49 40 31 28 26 25 24 20 17 14 11 6 2 358 353 350 348 343 337 333 329 323 319 317 311 300 291 289 294 286 273 274 282 287 290 293 297 302 304 304 303 300 300 297 291 284 280 279 281 281 279 276 272 264 254 248 244 238 234 234 233 232 230 229 229 227 227 230 233 230 223
222 218 214 211 211 213 215 213 218 236 249 201 153 99 58 39 24 20 19 18 19 14 9 7 5 2 1 359 355 350 346 342 337 333 329 325 320 315 311 306 296 284 280 289 288 278 278 284 284 290 301 305 302 301 298 292 288 288 289 288 284 281 283 283 280 278 274 269 262 255 249 243 238 235 234 234 233 231 230 229 229 231 232 231 226
225 220 215 213 212 214 215 215 222 226 213 185 165 122 70 39 20 14 11 8 9 9 4 359 355 352 351 353 353 351 346 341 336 332 327 325 323 318 313 310 304 295 285 282 287 279 275 288 294 294 300 303 305 305 297 287 283 280 278 280 283 284 283 283 282 281 277 272 269 263 255 248 243 239 237 237 236 234 232 231 230 231 231 230 228
226 222 219 216 215 216 219 223 229 230 215 194 173 123 62 17 360 357 351 347 348 349 344 338 336 336 338 340 341 342 340 335 332 330 325 321 319 317 315 311 306 304 297 287 283 284 284 289 293 292 295 300 304 307 302 293 288 284 282 278 277 278 278 277 277 277 276 274 275 275 267 255 248 243 240 238 237 236 234 232 231 230 230 229 229
226 223 220 219 219 222 226 231 235 238 228 211 197 230 314 328 334 335 331 328 326 324 324 328 333 337 337 337 336 334 332 328 325 323 321 317 314 310 309 308 304 303 301 294 288 290 293 295 295 296 301 302 298 302 309 307 297 292 294 289 282 279 276 274 273 272 272 274 277 279 276 266 256 249 244 240 239 238 236 234 232 230 229 229 229
226 224 222 221 222 226 231 236 240 242 238 229 234 268 299 313 323 328 326 323 322 322 326 331 334 335 333 331 330 330 326 321 317 316 316 314 312 308 306 306 303 301 301 298 295 293 295 298 300 302 305 303 295 294 304 312 308 303 296 287 284 283 280 276 273 271 271 273 274 274 273 270 263 256 249 242 240 239 237 235 232 230 229 230 230
226 223 222 221 222 227 233 238 242 242 241 243 259 283 296 307 318 324 324 323 323 323 326 328 329 328 327 327 326 325 322 316 310 306 305 302 303 306 304 303 302 300 299 300 300 297 296 298 301 303 304 304 300 295 295 301 307 310 303 289 281 281 281 278 274 271 271 272 273 273 273 273 267 261 255 247 242 240 237 235 232 230 229 230 231
224 220 219 219 221 225 229 235 239 240 245 257 276 289 293 305 318 322 320 316 316 318 320 322 323 323 323 323 322 322 319 313 307 300 296 295 297 299 300 299 299 298 297 297 297 297 298 298 298 299 301 302 301 298 295 296 298 304 308 301 289 281 279 279 276 272 271 272 272 273 274 274 270 265 260 253 246 241 238 235 231 230 230 230 231
222 216 213 214 217 222 225 228 231 234 246 261 274 282 292 305 312 311 308 306 309 313 316 317 318 319 319 318 318 318 314 308 304 299 295 294 295 295 295 296 295 295 295 294 293 293 292 292 294 296 299 300 299 297 297 299 299 299 301 301 297 289 282 280 279 276 275 274 273 273 273 274 272 268 262 258 252 245 240 235 232 231 231 230 231
218 214 212 212 215 218 219 219 221 228 239 251 261 272 286 298 301 300 301 304 306 308 309 312 314 314 314 314 313 313 308 303 300 298 296 294 293 292 292 292 292 292 291 291 292 291 288 285 288 292 294 296 298 297 296 298 300 299 299 298 299 298 293 289 284 281 279 276 274 272 273 273 273 271 266 260 256 249 242 235 232 232 231 230 231
215 211 209 210 213 214 215 214 218 227 234 239 246 257 271 282 290 298 302 304 306 307 309 311 312 312 311 310 309 308 304 300 297 297 296 295 293 291 290 289 289 288 287 288 289 288 285 282 282 284 288 290 291 292 294 295 296 294 293 295 297 299 301 300 294 290 286 282 279 277 276 276 275 273 269 264 258 252 245 237 233 232 231 230 230
211 209 207 207 209 209 211 214 219 223 224 224 226 234 253 274 288 296 302 306 309 310 311 311 310 309 308 307 306 303 300 298 296 295 294 293 291 289 287 287 287 287 286 285 284 282 280 277 276 278 282 284 283 285 289 292 291 288 288 290 291 293 298 301 299 298 296 291 287 284 281 280 278 274 270 265 259 252 247 239 233 230 230 230 229
206 206 206 206 206 205 206 211 214 212 207 204 206 226 255 282 297 304 308 310 311 311 310 308 308 307 305 304 302 300 298 295 293 292 290 288 286 284 284 285 285 285 284 282 280 278 276 274 273 275 277 277 276 277 279 279 279 282 288 290 287 288 292 294 293 293 294 293 290 287 285 283 281 278 273 267 261 254 247 239 232 229 228 228 229
201 201 202 202 203 206 207 205 202 197 195 199 212 247 285 305 314 317 318 316 314 311 309 307 306 304 303 302 300 298 297 295 293 291 288 286 284 281 281 281 280 279 278 277 275 273 272 272 270 270 272 273 272 270 268 270 272 275 281 286 288 290 290 288 287 287 286 287 284 281 282 284 281 278 273 268 264 257 247 239 233 230 228 226 228
196 196 196 198 204 208 205 198 192 192 197 209 237 282 311 325 330 331 328 323 318 313 309 306 304 303 302 300 299 299 298 296 295 293 291 288 285 282 280 277 275 274 272 271 271 270 268 268 268 267 265 269 272 271 268 269 271 271 272 277 282 286 285 281 281 283 284 286 280 274 280 284 280 275 273 271 267 259 252 244 237 233 230 228 229
191 190 192 201 204 200 195 190 188 192 202 226 268 304 323 333 337 337 334 330 323 316 311 306 303 302 300 299 298 296 296 296 297 295 292 289 287 284 282 279 275 272 268 267 268 268 267 267 267 264 261 265 270 271 269 269 271 270 270 271 273 275 275 272 266 268 278 285 279 272 278 283 278 272 272 271 267 262 258 252 243 236 232 230 230
189 186 189 197 196 191 189 186 185 192 210 250 288 314 328 334 338 338 337 334 326 319 313 308 304 302 299 298 296 294 294 295 294 293 291 289 287 285 282 279 276 272 269 266 264 265 266 266 266 263 262 263 265 266 268 269 269 271 271 268 264 262 264 268 266 268 278 283 275 266 272 278 275 269 269 270 266 262 261 257 248 240 236 233 231
185 181 182 186 185 185 186 182 184 201 231 272 302 321 330 335 337 337 337 334 327 320 314 309 306 303 300 298 295 294 294 293 292 291 290 289 287 285 282 279 276 274 271 268 265 264 263 263 262 263 264 264 263 265 267 266 265 267 267 265 261 258 259 265 269 270 273 274 272 264 265 273 272 264 266 269 265 261 261 259 253 247 240 237 235
181 178 177 180 180 179 181 184 193 217 262 298 318 330 335 338 338 337 336 333 326 320 314 310 307 304 302 300 296 295 293 292 291 289 288 287 285 284 283 280 278 276 272 270 267 265 263 261 261 263 266 266 265 267 267 265 262 261 261 263 268 271 271 271 271 270 268 266 264 253 251 267 268 261 266 268 261 256 257 255 252 249 244 241 238
177 177 176 177 176 175 177 188 207 243 288 306 322 333 336 338 337 337 336 332 326 320 314 311 308 305 304 301 298 295 293 290 289 288 286 285 283 282 282 281 280 278 274 271 269 267 265 265 264 265 266 266 267 268 267 266 263 262 262 263 265 266 268 269 268 266 265 264 258 243 240 258 263 258 262 265 256 251 252 252 251 248 243 240 238
172 173 171 169 168 169 171 182 228 270 289 308 323 329 334 337 339 339 337 332 325 319 314 311 308 306 305 304 300 296 293 290 289 289 287 285 283 282 282 283 282 279 276 274 272 269 268 268 267 266 266 266 265 265 265 264 263 262 260 258 255 254 256 259 259 258 259 259 255 242 234 246 256 254 251 252 251 250 251 251 250 248 243 238 235
164 163 161 156 151 149 144 159 247 288 307 315 319 324 330 337 341 341 338 332 324 317 313 311 309 306 305 305 301 294 290 289 288 287 286 284 283 282 282 283 281 279 277 277 275 273 271 270 270 268 267 265 263 262 262 261 259 257 252 250 249 249 251 250 251 257 259 256 251 240 228 233 245 245 236 234 245 248 247 249 248 243 239 234 230
153 152 151 144 138 135 134 165 274 307 315 314 314 317 328 338 342 342 338 331 322 316 312 310 308 305 303 301 297 290 288 287 286 284 283 282 281 280 280 280 279 277 279 280 277 276 275 273 271 269 268 265 262 261 260 258 257 254 251 249 247 246 246 246 246 251 258 255 246 234 223 223 231 233 224 210 231 247 240 241 241 235 230 224 218